Location: Howard City Library
(37.4684°N, 96.2639°W)
Time: 07:58:20
(UTC+00:00)

STARLINK-54 - Pass Details

Date: 18 February 2020
Orbit: 529 x 530 km, 53.0° (Epoch: 31 March)

Event Time Altitude Azimuth Distance (km) Brightness Sun altitude
Rises 01:21:03 0° 230° (SW) 2,652 8.0 -15.5°
Reaches altitude 10° 01:23:15 10° 232° (SW) 1,766 7.0 -15.9°
Maximum altitude 01:27:16 76° 319° (NW) 547 3.6 -16.7°
Enters shadow 01:29:26 26° 41° (NE) 1,065 4.7 -17.1°
